Location: Ljubljana
(46.0552°N, 14.5144°E)
Time: 22:35:14
(UTC+01:00)

ISS - Visible Passes

Search period start: 25 February 2018 00:00
Search period end: 07 March 2018 00:00
Orbit: 403 x 406 km, 51.6° (Epoch: 26 February)

Date Brightness Start Highest point End Pass type
(mag) Time Alt. Az. Time Alt. Az. Time Alt. Az.
27 Feb -1.2 05:32:37 10° S 05:34:58 18° SE 05:37:20 10° E visible
28 Feb -0.7 04:42:17 10° SE 04:42:58 10° SE 04:43:39 10° ESE visible
01 Mar -2.6 05:24:08 13° SSW 05:26:43 38° SE 05:29:47 10° ENE visible
02 Mar -1.8 04:34:18 22° SSE 04:34:35 22° SE 04:37:13 10° E visible
03 Mar -3.8 05:17:00 29° SW 05:18:31 80° SSE 05:21:49 10° ENE visible
04 Mar -2.6 04:26:55 40° ESE 04:26:55 40° ESE 04:29:27 10° ENE visible
04 Mar -3.1 05:59:40 10° W 06:02:49 41° NNW 06:05:57 10° ENE visible
05 Mar -0.3 03:36:44 11° E 03:36:44 11° E 03:36:55 10° E visible
05 Mar -3.6 05:09:24 37° W 05:10:25 56° NNW 05:13:39 10° ENE visible
06 Mar -2.5 04:19:09 39° ENE 04:19:09 39° ENE 04:21:20 10° ENE visible
06 Mar -2.6 05:51:49 10° WNW 05:54:49 31° N 05:57:48 10° ENE visible
